Hourly Data Report for July 07, 2021

TORONTO CITY CENTRE
ONTARIO
Current Station Operator: NAVCAN

43°37'39.000" N
79°23'46.000" W
76.80 m
6158359
71265
YTZ

Download Data

Hourly Data (July 2021)
Hourly Data Report for July 7, 2021
TIME
LST
Temp Definition
°C
Dew Point Definition
°C
Rel Hum Definition
%
Precip. Amount Definition
mm

Wind Dir Definition
10's deg

Wind Spd Definition
km/h
Visibility Definition
km
Stn Press Definition
kPa
Hmdx Definition


Wind Chill Definition


Weather Definition


00:00 24.5 18.5 69 0.0 7 5 16.1 100.42 31   LegendNANA
01:00 23.5 18.3 72 0.0 12 11 16.1 100.39 30   LegendNANA
02:00 22.7 18.2 76 0.0 8 9 16.1 100.43 29   LegendNANA
03:00 22.9 18.8 77 0.2 34 17 14.5 100.50 30   Rain
04:00 20.4 18.9 91 3.0 9 18 16.1 100.37 27   Rain
05:00 20.7 18.9 89 0.0 4 13 16.1 100.43 27   LegendNANA
06:00 20.9 19.1 89 0.0 7 13 16.1 100.47 28   LegendNANA
07:00 20.1 19.0 93 0.0 7 21 16.1 100.52 27   LegendNANA
08:00 19.2 17.1 87 0.2 7 24 16.1 100.57     Rain
09:00 19.0 17.5 91 2.5 6 30 16.1 100.59     LegendNANA
10:00 19.7 17.5 87 0.0 7 26 16.1 100.62     LegendNANA
11:00 20.0 16.7 81 0.0 7 26 16.1 100.62 25   LegendNANA
12:00 18.8 15.6 82 0.0 8 26 16.1 100.65     LegendNANA
13:00 19.2 16.2 83 0.0 7 26 16.1 100.63     LegendNANA
14:00 19.4 15.5 78 0.0 7 30 16.1 100.60     LegendNANA
15:00 18.9 15.0 78 0.0 8 26 16.1 100.62     LegendNANA
16:00 18.6 15.0 79 0.0 7 28 16.1 100.58     LegendNANA
17:00 18.4 15.6 84 0.0 7 22 16.1 100.55     LegendNANA
18:00 18.2 15.7 85 0.0 8 22 16.1 100.58     LegendNANA
19:00 17.9 15.0 83 0.0 8 22 16.1 100.63     LegendNANA
20:00 17.3 15.0 86 0.0 8 17 16.1 100.61     Rain
21:00 17.5 15.0 85 0.0 9 15 16.1 100.64     LegendNANA
22:00 17.7 14.6 82 0.0 7 26 16.1 100.59     LegendNANA
23:00 17.3 14.2 82 0.0 6 28 16.1 100.50     LegendNANA

Notes on Data Quality.

Legend

  • E = Estimated
  • M = Missing
  • NA = Not Available*
  • [empty] = Indicates an unobserved value
Date modified: